ONEWEB-0011 (44062 NORAD) Tracking and Keplerian Element Data

This shows tracking and keplerian element data for the satellite.

Feedback or suggestion? Click here.




ElementValue
Catalog44062
NameONEWEB-0011
Epoch Orbit12453
Epoch Day268.70655143
Epoch Year2021
RAAN241.8417
Inclination88.2037
Eccentricity0.0002117
Argument of Perigee68.2476
Mean Anonmoly291.8884
Mean Motion13.22590478
Decay Rate9.538E-05
L11 44062U 19010F 21268.70655143 .00009538 00000-0 22780-1 0 9992
L22 44062 88.2037 241.8417 0002117 68.2476 291.8884 13.22590478124533

Live tracking and technical data element details for ONEWEB-0011 (NORAD 44062). ONEWEB-0011 can be tracked NOW for your location showing map with azimuth and elevation plus other details from your city location.

Track the satellite on the map from your city or location and see movement details for azimuth, elevation, latitude, longitude, range, height, and movement on the map or in text.







IsCatalogInMostPopularTable: catalog: 44062, numindb: 1009
Update: records affected: 1



GetName: 44062 ONEWEB-0011

Hit Count: updated at: Mon, 27 Sep 2021 02:01:27 GMT